sat.trackr.live / text

‹ back to catalog

LEMUR-2-TILLINFINITY

NORAD 63356 · 2025-061F

PAYLOAD ACTIVE UNKNOWN

§ Identity

Operator
Country
US
Launch date
2025-03-26
Launch site
RLLB
Launch vehicle
Mass (kg)
RCS (m²)

Purposes: earth_obs

External: N2YO · Heavens-Above · Gunter

§ Orbital elements

Epoch: 2026-05-24T21:27:39.411360Z

Period
95.08 min
Inclination
97.5595°
Eccentricity
0.0017253
Mean motion
15.14583705 rev/d
Perigee alt
510.3 km
Apogee alt
534.1 km
Semi-major
6,900.4 km
B*
1.9775e-4
RAAN
121.0128°
Arg perigee
333.7166°
Mean anomaly
26.3188°
Rev number
6,411

§ Raw data

LEMUR-2-TILLINFINITY1 63356U 25061F   26144.89420615  .00003594  00000+0  19775-3 0  99912 63356  97.5595 121.0128 0017253 333.7166  26.3188 15.14583705 64116

JSON: /api/v1/satellites/63356 · /tle

For live sub-satellite position, see the globe view (requires WebGL).

§ Visibility from observer

Set your observer location to see the next 7 days of passes ≥ 10°. The values pass through the URL so the page stays shareable.

No JS? Fill the form by hand. The geolocation button needs JavaScript.